User: anonymous   Login
Location: Unspecified
(0.0000°N, 0.0000°E)
Time: 02:57:16
(UTC+00:00)
Language:

Kiku 2 - Orbit

View from above orbital plane
View from above orbital plane
View from above satellite
View from above satellite

Ground track
Ground track

The orbit data is extracted from the following two-line orbital elements,

1  9852U 77014A   18171.15622971 -.00000257 +00000-0 +00000-0 0  9999
2  9852 011.9407 317.3369 0002071 324.4741 015.4911 01.00019984098027
Epoch (UTC): 20 June 2018 03:44:58
Eccentricity: 0.0002071
inclination: 11.9407°
perigee height: 35848 km
apogee height: 35866 km
right ascension of ascending node: 317.3369°
argument of perigee: 324.4741°
revolutions per day: 1.00019984
mean anomaly at epoch: 15.4911°
orbit number at epoch: 9802

The dashed part of the orbit path shows where the satellite is in the earth's shadow,  

DLR